カタログに戻る

PEGASUS DEB

運用中PO
NORAD 39310·DEBRIS·🇺🇸 United States

打ち上げ May 19, 1994 から Vandenberg Space Force Base

Loading…

次のパス (今後24時間)

TLE

経年Source: Space-Track

元期: Sep 6, 2026, 12:49 UTC

1 39310U 94029AEV 26249.53415515  .00001912  00000-0  31719-3 0  9999
2 39310  81.8163 341.3543 0230207  77.4983 285.1861 14.53599216855992

AllMySatでPEGASUS DEBをリアルタイム追跡

Download on the App Store